2020-079K

Last updated on Thu Dec 03 2020 00:02:03 GMT+0000 (Coordinated Universal Time)

1 46836U 20079K 20337.52859793 .00004348 00000-0 14297-3 0 9993 2 46836 97.2668 49.2465 0008821 173.8526 310.5476 15.32022007 4033

Satellite not in orbit

2020-079K